Zurück zum Katalog

STARLINK-5178

AktivKommunikationVLEO
NORAD 54083·PAYLOAD·🇺🇸 United States

Gestartet Oct 20, 2022 von Cape Canaveral Space Force Station

Loading…

Nächste Überflüge (nächste 24 Stunden)

TLE

AktuellSource: CelesTrak SupGP

Epoche: Sep 14, 2026, 21:54 UTC

1 54083C 22136AJ  26257.91298611  .00084243  00000+0  34765-2 0  2577
2 54083  53.1611 203.2195 0001300  92.4980 209.9727 15.23471933    12

Verfolge STARLINK-5178 in Echtzeit mit AllMySat

Download on the App Store